Weather in Kizilyurt

Russia / Republic of Dagestan     43°12′16″N   46°52′00″E
temp.,
°C
wind,
m/s
gust,
m/s
humid.,
%
clouds,
%
prec.,
mm/h
press.,
hPa
HPBL,
m
17 september, fri
fri1700:00+17ne117314 0.0 101411
03:00+16ssw018350 0.0 101512
06:00+18e226891 0.0 101680
09:00+22e6649100 0.0 10151247
12:00+23e7746100 0.0 10151695
15:00+20e7854100 0.0 10151328
18:00+18e5764100 0.1 1016730
21:00+17e4768100 0.1 1016359
18 september, sat
sat1800:00+17e4766100 0.0 1016361
03:00+16ene3770100 0.1 1016217
06:00+16e3673100 0.0 1016211
09:00+20e4461100 0.0 1016968
12:00+21e445799 0.0 10161249
15:00+21e555799 0.0 10161259
18:00+18e58675 0.0 1016422
21:00+16e48755 0.0 1017217
19 september, sun
sun1900:00+16ese49814 0.0 1016220
03:00+15ese3785100 0.0 1016148
06:00+16ese498673 0.0 1016254
09:00+22ese78599 0.0 1015973
12:00+26e884782 0.0 10141360
15:00+24e91045100 0.0 10131106
18:00+20e71157100 0.0 1014460
21:00+19ese4765100 0.0 1014198
20 september, mon
mon2000:00+17se12715 0.0 101417
03:00+16w22772 0.0 101415
06:00+16w22815 0.0 101420
09:00+23nw23545 0.0 1014596
12:00+27n33415 0.0 10131367
15:00+29nnw333698 0.0 10121786
18:00+22ene22545 0.0 101424
21:00+20ssw11627 0.0 101411
21 september, tue
tue2100:00+19ssw01654 0.0 101411
03:00+17sw11720 0.0 101311
06:00+17w12725 0.0 101412
09:00+24ne11505 0.0 1014490
12:00+28e33401 0.0 10131190
15:00+30e4239100 0.0 10121656
18:00+23ese466771 0.0 1013128
21:00+21se22775 0.0 101433